Location: Barcelona
(41.3830°N, 2.1830°E)
Time: 13:12:05
(UTC+01:00)

ISS - Pass Details

Date: 06 December 2019
Orbit: 411 x 421 km, 51.6° (Epoch: 11 December)

Event Time Altitude Azimuth Distance (km) Brightness Sun altitude
Rises 20:00:37 0° 304° (NW) 2,362 0.8 -29.0°
Reaches altitude 10° 20:02:43 10° 303° (WNW) 1,498 -0.4 -29.4°
Enters shadow 20:02:59 12° 302° (WNW) 1,393 -0.5 -29.5°
